Weather in Tavly

Russia / Tomsk District     56°35′27″N   86°55′19″E
temp.,
°C
wind,
m/s
gust,
m/s
humid.,
%
clouds,
%
prec.,
mm/h
press.,
hPa
HPBL,
m
16 may, sun
sun1601:00+11n239499 8.5 101673
04:00+11nne359597 0.0 1015328
07:00+11ene348799 0.0 1015308
10:00+12ene3382100 0.0 1014461
13:00+10ene4693100 3.6 1013323
16:00+11ne448795 1.6 1013454
19:00+10ne3486100 1.6 1013468
22:00+9ne2491100 0.0 1014209
17 may, mon
mon1701:00+9ne2289100 0.0 101599
04:00+8ne238830 0.0 101473
07:00+8ne238327 0.0 1015166
10:00+12n1162100 0.0 1015598
13:00+15nw2251100 0.0 10151278
16:00+15nw3454100 0.0 10141353
19:00+14nw2362100 0.0 1014783
22:00+11se1184100 0.6 101343
18 may, tue
tue1801:00+10s2489100 0.8 1011144
04:00+10sse2693100 0.3 1009188
07:00+12ssw3993100 1.0 1006502
10:00+13sw2695100 1.4 1003481
13:00+12n4997100 8.3 1003398
16:00+15w237834 0.5 1002614
19:00+9nne5895100 2.8 1003336
22:00+8nne4794100 0.1 1005567
19 may, wed
wed1901:00+7nne5993100 0.2 1007473
04:00+7n4787100 0.1 1008433
07:00+5n51173100 0.1 1010456
10:00+7n6856100 0.0 1011895
13:00+9n683957 0.0 10111864
16:00+10n79336 0.0 10112260
19:00+9n69406 0.0 10122506
22:00+4nnw37555 0.0 1014162
20 may, thu
thu2001:00+2nnw385985 0.0 1015254
04:000nw39675 0.0 1015293
07:00+1nw59560 0.0 1017517
10:00+5nw674043 0.0 10171873
13:00+8nw6735100 0.0 10172620
16:00+9nw683497 0.0 10162415
19:00+9nw463957 0.0 10172217
22:00+4w365350 0.0 101890